Location: El Álamo
(40.2307°N, 3.9945°W)
Time: 03:29:04
(UTC+00:00)

NOSS 3-1 (A) - Pass Details

Date: 19 May 2025
Orbit: 639 x 1568 km, 63.4° (Epoch: 20 June)

Event Time Altitude Azimuth Distance (km) Brightness Sun altitude
Exits shadow 22:37:39 27° 245° (WSW) 1,326 4.2 -25.9°
Maximum altitude 22:40:03 53° 310° (NW) 905 3.6 -26.1°
Drops below altitude 10° 22:45:29 10° 27° (NNE) 2,479 6.1 -26.5°
Sets 22:48:18 0° 32° (NNE) 3,562 6.9 -26.7°
